Tracking 21082 objects as of 5-Aug-2020
HD Live streaming from Space Station
objects crossing your sky now

CZ-2C DEB

Track CZ-2C DEB now!
10-day predictions


NORAD ID: 37768
Int'l Code: 2011-039D
Perigee: 690.6 km
Apogee: 907.7 km
Inclination: 98.2 °
Period: 100.7 minutes
Semi major axis: 7170 km
RCS: 0.0872 m2 (small)
Launch date: July 29, 2011
Source: People's Republic of China (PRC)
Launch site: Jiuquan Satellite Launch Center, China (JSC)

Note: This is SATELLITE DEBRIS
aabbcc
Your satellite tracking list
Your tracking list is empty




NASA's NSSDC Master Catalog

Two Line Element Set (TLE):
1 37768U 11039D   20217.71323162 +.00000259 +00000-0 +10307-3 0  9992
2 37768 098.1747 228.4451 0151412 165.5208 256.6248 14.29925042469994
Source of the keplerian elements: AFSPC